SWA2533 KLAX-KDEN

Flight info

Callsign SWA2533
Flight time N/A
Altitude 35000
Route ORCKA5 LAS J146 DICEE BUMMP SSKII4
Aircraft B738/M-SDE2E3FGHIRWXY/LB1

Departure

Time 2026-04-22 00:41
Airport Los Angeles International Airport (KLAX)

Arrival

Time N/A
Airport Denver International Airport (KDEN)
Time Latitude Longitude Altitude Speed Heading
2026-04-22 00:11 33.94044 -118.40258 127 ft 0 kts 84°
2026-04-22 00:24 33.94044 -118.40259 127 ft 2 kts 84°
2026-04-22 00:25 33.94043 -118.40285 122 ft 4 kts 108°
2026-04-22 00:25 33.94057 -118.40309 122 ft 4 kts 153°
2026-04-22 00:26 33.94078 -118.40318 125 ft 1 kts 173°
2026-04-22 00:29 33.94040 -118.40312 123 ft 12 kts 173°
2026-04-22 00:29 33.93971 -118.40301 124 ft 18 kts 173°
2026-04-22 00:30 33.93857 -118.40239 124 ft 13 kts 97°
2026-04-22 00:30 33.93870 -118.40088 125 ft 23 kts 83°
2026-04-22 00:30 33.93895 -118.39858 124 ft 32 kts 82°
2026-04-22 00:30 33.93913 -118.39664 125 ft 15 kts 83°
2026-04-22 00:31 33.93923 -118.39560 127 ft 10 kts 83°
2026-04-22 00:31 33.93930 -118.39500 125 ft 14 kts 82°
2026-04-22 00:31 33.93960 -118.39210 125 ft 31 kts 83°
2026-04-22 00:31 33.93983 -118.38977 123 ft 26 kts 83°
2026-04-22 00:32 33.94004 -118.38779 126 ft 23 kts 83°
2026-04-22 00:32 33.94023 -118.38587 127 ft 23 kts 83°
2026-04-22 00:32 33.94043 -118.38392 122 ft 23 kts 83°
2026-04-22 00:32 33.94062 -118.38202 126 ft 20 kts 83°
2026-04-22 00:33 33.94074 -118.38082 126 ft 7 kts 83°
2026-04-22 00:33 33.94075 -118.38079 126 ft 0 kts 83°
2026-04-22 00:33 33.94076 -118.38050 126 ft 7 kts 91°
2026-04-22 00:33 33.94074 -118.38038 126 ft 0 kts 101°
2026-04-22 00:36 33.94070 -118.38024 126 ft 5 kts 121°
2026-04-22 00:37 33.94017 -118.38001 124 ft 11 kts 189°
2026-04-22 00:37 33.93979 -118.38075 125 ft 9 kts 261°
2026-04-22 00:37 33.93978 -118.38083 126 ft 0 kts 262°
2026-04-22 00:40 33.93977 -118.38087 123 ft 5 kts 262°
2026-04-22 00:40 33.93943 -118.38426 125 ft 80 kts 263°
2026-04-22 00:40 33.93735 -118.40600 519 ft 164 kts 264°
2026-04-22 00:41 33.93620 -118.42135 962 ft 194 kts 265°
2026-04-22 00:41 33.93399 -118.44956 2321 ft 209 kts 260°
2026-04-22 00:41 33.92825 -118.47361 3069 ft 238 kts 247°
2026-04-22 00:42 33.92142 -118.49220 3907 ft 246 kts 247°
2026-04-22 00:42 33.90778 -118.53066 5802 ft 252 kts 247°
2026-04-22 00:42 33.90107 -118.55028 6752 ft 256 kts 247°
2026-04-22 00:43 33.89440 -118.57029 7651 ft 258 kts 247°
2026-04-22 00:43 33.88776 -118.59052 8579 ft 260 kts 247°
2026-04-22 00:43 33.88115 -118.61083 9484 ft 261 kts 247°
2026-04-22 00:43 33.87467 -118.63094 10014 ft 263 kts 247°
2026-04-22 00:44 33.86810 -118.65148 10098 ft 263 kts 247°
2026-04-22 00:44 33.86065 -118.67131 10109 ft 259 kts 233°
2026-04-22 00:44 33.84783 -118.68657 10107 ft 262 kts 218°
2026-04-22 00:44 33.83144 -118.69638 10113 ft 268 kts 201°
2026-04-22 00:45 33.82532 -118.69818 10115 ft 270 kts 195°
2026-04-22 00:45 33.77486 -118.67859 10117 ft 302 kts 139°